Weather reports worldwide

Advertisment
Volkel, Netherlands (6375): temperature & dewpoint: 01.08.2020 02:00:00 - 07.08.2020 02:00:00 (CEST)Volkel, Netherlands (6375): temperature 5cm: 01.08.2020 02:00:00 - 07.08.2020 02:00:00 (CEST)Volkel, Netherlands (6375): wind speed & gusts: 01.08.2020 02:00:00 - 07.08.2020 02:00:00 (CEST)Volkel, Netherlands (6375): wind direction: 01.08.2020 02:00:00 - 07.08.2020 02:00:00 (CEST)Volkel, Netherlands (6375): reduced air pressure: 01.08.2020 02:00:00 - 07.08.2020 02:00:00 (CEST)Volkel, Netherlands (6375): visibility: 01.08.2020 02:00:00 - 07.08.2020 02:00:00 (CEST)Volkel, Netherlands (6375): precipitation: 01.08.2020 02:00:00 - 07.08.2020 02:00:00 (CEST)
Date & Time tt [°C] td [°C] tt 5cm [°C] ff [km/h] ff [kn] fx [km/h] fx [kn] dd ppp [hPa] vv [km] rr [mm]
07.08.2020 02:00:00 18,0 14,0 12,7 5 3 - - NE 1019,5 10 -
07.08.2020 01:00:00 18,4 13,7 13,1 4 2 7 4 NNE 1019,6 10 0,0
07.08.2020 00:00:00 19,7 13,9 13,9 4 2 7 4 NE 1019,5 10 0,0
06.08.2020 23:00:00 20,7 13,4 15,3 2 1 4 2 NNE 1019,4 10 0,0
06.08.2020 22:00:00 21,6 13,6 17,3 2 1 4 2 NE 1019,2 10 0,0
06.08.2020 21:00:00 25,6 13,3 23,6 4 2 11 6 ENE 1018,7 10 0,0
06.08.2020 20:00:00 29,6 12,9 30,2 4 2 7 4 - 1018,4 10 0,0
06.08.2020 19:00:00 31,1 10,0 32,3 5 3 14 8 - 1018,4 10 0,0
06.08.2020 18:00:00 31,3 10,1 33,7 4 2 14 8 - 1018,5 10 0,0
06.08.2020 17:00:00 31,7 9,8 34,6 9 5 18 10 ESE 1018,7 10 0,0
06.08.2020 16:00:00 31,2 9,5 34,5 9 5 22 12 SE 1018,7 10 0,0
06.08.2020 15:00:00 31,4 9,4 34,6 9 5 22 12 SSW 1018,9 10 0,0
06.08.2020 14:00:00 30,3 9,9 34,3 9 5 25 14 - 1019,1 10 0,0
06.08.2020 13:00:00 29,4 10,3 32,8 13 7 25 14 S 1019,5 10 0,0
06.08.2020 12:00:00 28,1 10,7 31,2 15 8 22 12 SSW 1019,6 10 0,0
06.08.2020 11:00:00 26,1 10,1 29,0 11 6 25 14 S 1019,4 10 0,0
06.08.2020 10:00:00 23,0 12,2 25,5 8 4 11 6 SSE 1019,2 10 0,0
06.08.2020 09:00:00 21,3 12,9 22,8 4 2 7 4 - 1019,1 10 0,0
06.08.2020 08:00:00 18,3 11,8 18,2 4 2 7 4 E 1018,6 10 0,0
06.08.2020 07:00:00 14,9 11,2 10,7 5 3 7 4 SW 1018,2 10 0,0
06.08.2020 06:00:00 13,8 10,4 8,1 4 2 7 4 - 1017,7 10 0,0
06.08.2020 05:00:00 14,8 10,6 8,6 4 2 7 4 - 1017,3 10 0,0
06.08.2020 04:00:00 14,2 11,0 8,9 2 1 7 4 - 1016,8 10 0,0
06.08.2020 03:00:00 15,1 11,0 9,6 2 1 4 2 SSE 1016,4 10 0,0
06.08.2020 02:00:00 15,1 11,5 9,9 2 1 4 2 ENE 1016,3 10 0,0
06.08.2020 01:00:00 16,7 11,5 11,0 4 2 11 6 ENE 1016,1 10 0,0
06.08.2020 00:00:00 17,6 11,0 11,3 0 0 4 2 N 1016,0 10 0,0
05.08.2020 23:00:00 18,4 11,3 12,5 0 0 4 2 N 1015,9 10 0,0
05.08.2020 22:00:00 20,0 10,7 15,1 2 1 7 4 SE 1015,5 10 0,0
05.08.2020 21:00:00 24,0 10,9 21,5 5 3 11 6 S 1015,0 10 0,0
05.08.2020 20:00:00 27,1 8,4 26,5 9 5 18 10 S 1014,8 10 0,0
05.08.2020 19:00:00 29,0 7,3 29,8 13 7 22 12 S 1014,6 10 0,0
05.08.2020 18:00:00 29,1 6,8 31,4 13 7 25 14 SSW 1014,8 10 0,0
05.08.2020 17:00:00 29,5 8,1 32,0 15 8 25 14 S 1014,9 10 0,0
05.08.2020 16:00:00 29,0 7,6 32,1 18 10 32 18 SSW 1015,1 10 0,0
05.08.2020 15:00:00 27,7 7,6 31,5 16 9 32 18 SW 1015,6 10 0,0
05.08.2020 14:00:00 27,1 8,3 30,6 22 12 29 16 S 1015,8 10 0,0
05.08.2020 13:00:00 26,1 9,2 29,5 16 9 32 18 SW 1016,3 10 0,0
05.08.2020 12:00:00 24,7 9,7 27,6 18 10 32 18 SW 1016,6 10 0,0
05.08.2020 11:00:00 23,3 10,5 25,7 21 11 29 16 SW 1016,8 10 0,0
05.08.2020 10:00:00 21,6 10,7 23,0 18 10 29 16 SSW 1017,0 10 0,0
05.08.2020 09:00:00 19,0 10,7 19,8 15 8 22 12 S 1016,6 10 0,0
05.08.2020 08:00:00 16,0 9,9 15,9 11 6 18 10 S 1016,4 10 0,0
05.08.2020 07:00:00 13,3 9,0 11,6 8 4 14 8 SSW 1016,0 10 0,0
05.08.2020 06:00:00 12,8 8,5 11,2 9 5 14 8 S 1015,5 10 0,0
05.08.2020 05:00:00 13,2 8,2 9,0 4 2 11 6 - 1015,7 10 0,0
05.08.2020 04:00:00 13,2 8,4 9,4 8 4 11 6 SW 1016,0 10 0,0
05.08.2020 03:00:00 13,9 8,3 10,1 8 4 14 8 S 1016,1 10 0,0
05.08.2020 02:00:00 12,5 8,8 10,6 8 4 14 8 SW 1016,4 10 0,0
05.08.2020 01:00:00 15,4 8,1 13,2 8 4 14 8 SSE 1016,2 10 0,0
05.08.2020 00:00:00 16,2 8,3 14,0 9 5 14 8 SSE 1016,3 10 0,0
04.08.2020 23:00:00 15,2 8,7 10,0 5 3 7 4 SE 1016,6 10 0,0
04.08.2020 22:00:00 15,8 9,7 12,2 2 1 7 4 SE 1016,6 10 0,0
04.08.2020 21:00:00 18,7 10,0 17,7 4 2 4 2 ESE 1016,5 10 0,0
04.08.2020 20:00:00 20,1 7,9 19,7 5 3 14 8 WNW 1016,7 10 0,0
04.08.2020 19:00:00 22,1 7,7 23,5 5 3 22 12 - 1016,6 10 0,0
04.08.2020 18:00:00 22,2 6,6 25,2 8 4 22 12 WNW 1017,0 10 0,0
04.08.2020 17:00:00 22,4 6,1 25,9 8 4 25 14 W 1017,1 10 0,0
04.08.2020 16:00:00 22,8 6,4 26,7 15 8 25 14 WSW 1017,4 10 0,0
04.08.2020 15:00:00 21,2 5,7 24,5 11 6 25 14 - 1017,5 10 0,0
04.08.2020 14:00:00 21,5 6,8 23,9 9 5 22 12 NNW 1017,7 10 0,0
04.08.2020 13:00:00 21,0 6,2 21,5 13 7 32 18 WNW 1017,9 10 0,0
04.08.2020 12:00:00 19,1 6,9 22,7 9 5 22 12 W 1017,7 10 0,0
04.08.2020 11:00:00 18,6 7,3 20,4 8 4 18 10 W 1017,6 10 0,0
04.08.2020 10:00:00 17,8 11,4 19,9 9 5 18 10 N 1017,8 10 0,0
04.08.2020 09:00:00 16,1 11,8 17,4 9 5 18 10 NNW 1017,6 10 0,0
04.08.2020 08:00:00 13,8 12,0 13,7 5 3 14 8 W 1017,2 10 0,0
04.08.2020 07:00:00 11,5 11,2 9,9 4 2 11 6 W 1016,8 9 0,0
04.08.2020 06:00:00 11,1 10,9 7,4 4 2 11 6 W 1016,2 10 0,0
04.08.2020 05:00:00 11,5 11,0 9,0 4 2 7 4 W 1016,0 10 0,0
04.08.2020 04:00:00 12,2 11,5 8,8 2 1 7 4 - 1015,8 10 0,0
04.08.2020 03:00:00 12,5 11,5 9,7 2 1 11 6 - 1015,9 10 0,0
04.08.2020 02:00:00 13,4 12,0 11,2 5 3 11 6 WNW 1016,1 10 0,0
04.08.2020 01:00:00 14,1 12,1 11,9 4 2 7 4 - 1015,9 10 0,0
04.08.2020 00:00:00 15,2 12,2 13,4 4 2 7 4 NNW 1015,2 10 0,0
03.08.2020 23:00:00 15,8 12,1 15,0 5 3 14 8 NNW 1014,6 10 0,0
03.08.2020 22:00:00 16,3 11,9 15,8 8 4 14 8 NNW 1014,3 10 0,0
03.08.2020 21:00:00 16,8 11,0 16,3 8 4 14 8 NNW 1013,8 10 0,0
03.08.2020 20:00:00 17,6 10,8 17,5 8 4 18 10 NW 1013,6 10 0,0
03.08.2020 19:00:00 17,9 10,4 18,0 13 7 29 16 NNW 1013,4 10 0,0
03.08.2020 18:00:00 18,5 10,8 19,1 15 8 36 19 NW 1013,3 10 0,0
03.08.2020 17:00:00 18,9 12,3 19,2 9 5 29 16 NW 1013,0 10 0,0
03.08.2020 16:00:00 22,3 8,7 24,3 8 4 14 8 - 1012,7 10 0,0
03.08.2020 15:00:00 23,7 9,3 26,6 8 4 18 10 - 1013,0 10 0,0
03.08.2020 14:00:00 21,5 9,4 23,1 5 3 18 10 - 1013,5 10 0,0
03.08.2020 13:00:00 21,1 10,4 24,5 5 3 14 8 - 1013,9 10 0,0
03.08.2020 12:00:00 20,7 11,1 23,4 8 4 14 8 SSE 1014,0 10 0,0
03.08.2020 11:00:00 18,7 11,5 20,8 5 3 14 8 S 1014,5 10 0,0
03.08.2020 10:00:00 18,2 12,4 20,2 5 3 14 8 E 1014,8 10 0,0
03.08.2020 09:00:00 15,3 11,8 16,0 5 3 11 6 ESE 1014,9 10 0,0
03.08.2020 08:00:00 11,7 11,4 11,5 2 1 4 2 - 1014,7 10 0,0
03.08.2020 07:00:00 9,7 9,7 8,8 2 1 4 2 - 1014,8 10 0,0
03.08.2020 06:00:00 8,8 8,7 3,9 2 1 4 2 NW 1014,9 10 0,0
03.08.2020 05:00:00 8,7 8,7 3,4 0 0 4 2 N 1014,9 10 0,0
03.08.2020 04:00:00 9,2 9,0 4,1 2 1 4 2 NW 1015,3 10 0,0
03.08.2020 03:00:00 9,6 9,6 4,0 2 1 4 2 NW 1015,6 10 0,0
03.08.2020 02:00:00 10,2 10,0 4,5 2 1 4 2 NW 1015,6 10 0,0
03.08.2020 01:00:00 10,8 10,0 5,2 2 1 4 2 NNW 1015,8 10 0,0
03.08.2020 00:00:00 12,0 10,0 6,3 2 1 7 4 NW 1015,9 10 0,0
02.08.2020 23:00:00 13,3 10,0 8,7 4 2 7 4 NW 1016,0 10 0,0
02.08.2020 22:00:00 15,6 10,0 10,5 2 1 11 6 - 1016,0 10 0,0
02.08.2020 21:00:00 18,4 9,7 17,1 8 4 18 10 NNW 1015,7 10 0,0
02.08.2020 20:00:00 20,5 10,3 21,0 11 6 29 16 NW 1015,4 10 0,0
02.08.2020 19:00:00 21,4 10,5 22,9 13 7 29 16 WNW 1015,0 10 0,0
02.08.2020 18:00:00 22,2 11,0 23,6 15 8 32 18 NW 1015,1 10 0,0
02.08.2020 17:00:00 22,8 11,8 25,3 13 7 32 18 WNW 1015,1 10 0,0
02.08.2020 16:00:00 22,5 12,1 24,8 15 8 29 16 WNW 1014,9 10 0,0
02.08.2020 15:00:00 22,5 12,7 24,0 15 8 32 18 NW 1015,3 10 0,0
02.08.2020 14:00:00 22,6 12,6 26,2 15 8 29 16 WNW 1015,1 10 0,0
02.08.2020 13:00:00 22,0 13,4 23,1 8 4 25 14 WNW 1015,3 10 0,0
02.08.2020 12:00:00 20,3 16,1 21,6 11 6 18 10 WSW 1015,1 10 0,0
02.08.2020 11:00:00 18,8 15,6 19,4 13 7 25 14 WSW 1015,2 10 0,0
02.08.2020 10:00:00 18,8 15,4 20,3 13 7 22 12 WSW 1014,8 10 0,0
02.08.2020 09:00:00 17,3 15,0 17,4 16 9 25 14 WSW 1014,6 10 0,0
02.08.2020 08:00:00 15,7 14,1 15,3 13 7 18 10 SW 1014,4 10 0,0
02.08.2020 07:00:00 13,6 12,8 12,7 11 6 14 8 SW 1014,5 10 0,0
02.08.2020 06:00:00 13,2 12,5 9,0 5 3 11 6 SW 1014,5 10 0,0
02.08.2020 05:00:00 13,3 13,1 8,7 2 1 7 4 - 1014,7 10 0,0
02.08.2020 04:00:00 14,0 12,9 11,3 5 3 7 4 SSW 1014,8 10 0,0
02.08.2020 03:00:00 14,7 13,1 11,6 8 4 11 6 WSW 1015,1 10 0,0
02.08.2020 02:00:00 14,2 12,8 12,1 8 4 7 4 WSW 1015,4 10 0,0
02.08.2020 01:00:00 15,5 13,7 11,1 2 1 7 4 W 1015,6 10 0,0
02.08.2020 00:00:00 16,9 14,2 13,8 5 3 11 6 W 1015,6 10 0,0
01.08.2020 23:00:00 18,2 14,1 14,3 4 2 7 4 WNW 1015,2 10 0,0
01.08.2020 22:00:00 20,6 13,3 19,1 5 3 14 8 NW 1015,4 10 0,0
01.08.2020 21:00:00 22,4 12,0 21,9 11 6 22 12 WNW 1015,0 10 0,0
01.08.2020 20:00:00 23,1 11,9 22,7 13 7 25 14 W 1014,9 10 0,0
01.08.2020 19:00:00 24,2 17,0 24,9 11 6 22 12 W 1014,9 10 0,0
01.08.2020 18:00:00 24,0 18,3 23,8 13 7 22 12 W 1015,1 10 0,0
01.08.2020 17:00:00 23,5 18,4 24,6 16 9 29 16 W 1015,0 10 0,0
01.08.2020 16:00:00 25,3 18,6 26,9 15 8 25 14 W 1014,7 10 0,0
01.08.2020 15:00:00 25,7 18,7 26,9 15 8 25 14 W 1015,0 10 0,0
01.08.2020 14:00:00 26,4 18,3 28,7 15 8 25 14 WSW 1014,8 10 0,0
01.08.2020 13:00:00 25,1 18,2 27,7 18 10 29 16 SW 1015,2 10 0,0
01.08.2020 12:00:00 24,6 18,4 26,4 16 9 25 14 WSW 1015,0 10 0,0
01.08.2020 11:00:00 24,1 18,6 25,1 16 9 25 14 SSW 1014,9 10 0,0
01.08.2020 10:00:00 22,2 17,8 23,0 11 6 18 10 W 1013,9 10 0,0
01.08.2020 09:00:00 21,8 18,0 21,9 9 5 18 10 W 1013,5 10 0,0
01.08.2020 08:00:00 21,5 18,5 20,8 5 3 11 6 WSW 1013,2 10 0,0
01.08.2020 07:00:00 20,1 18,8 19,1 5 3 11 6 W 1012,9 10 0,0
01.08.2020 06:00:00 19,9 18,1 18,9 8 4 18 10 W 1012,5 10 0,0
01.08.2020 05:00:00 19,9 17,8 19,2 13 7 25 14 S 1013,0 10 3,1
01.08.2020 04:00:00 19,8 17,6 19,0 5 3 22 12 ENE 1011,6 10 2,0
01.08.2020 03:00:00 23,1 14,5 20,5 9 5 25 14 SW 1012,4 10 0,0
01.08.2020 02:00:00 22,0 14,5 20,5 9 5 14 8 E 1011,7 10 0,0

tt = temperature
td = dewpoint
tt 5cm = temperature 5cm
ff = wind speed
fx = gusts
dd = wind direction
ppp = reduced air pressure
vv = visibility
rr = precipitation

Next stations